Flag for Germany Weather past 2 weeks in Wismar, Mecklenburg-Western Pomerania, Germany

Now
59 °F

Light rain. Overcast.


Feels Like: 59 °F
Forecast: 56 / 65 °F
Wind: 2 mph from West

Location: Schwerin

Current Time: Sep 30, 2014 at 8:35:46 AM

Latest Report: Sep 30, 2014 at 8:00 AM


Visibility: 1 mi

Pressure: 30.18 "Hg

Humidity: 99%

Dew point: 59 °F

Location of WismarLocation

Historic Weather in Wismar — Graph

°F

Wismar temperature yesterday

Maximum temperature yesterday: 70 °F (at 5:00 PM)
Minimum temperature yesterday: 52 °F (at 6:00 AM)
Average temperature yesterday: 60 °F

Past Weeks' High & Low Weather Summary

 TemperatureHumidityPressure
High76 °F (Sep 15, 4:00 PM)100% (Sep 21, 6:00 AM)30.35 "Hg (Sep 21, 6:00 AM)
Low45 °F (Sep 28, 7:00 AM)46% (Sep 15, 3:00 PM)29.77 "Hg (Sep 25, 1:00 AM)
Average59 °F80%30.04 "Hg
* Reported Sep 15 7:00 AM — Sep 30 7:00 AM, Wismar, Weather by CustomWeather, © 2014

Note: Actual official high and low records may vary slightly from our data, if they occured in-between our weather recording intervals... More about our weather records

Advertising

Wismar weather history for previous 24 hours

 ConditionsComfort  
Time TempWeatherWind HumidityBarometerVisibility
7:00 AM
Sep 30
59 °FFog.3 mph98%30.17 "Hg2 mi
6:00 AM59 °FFog.1 mph98%30.17 "Hg2 mi
4:00 AM60 °FOvercast.1 mph95%30.17 "Hg3 mi
3:00 AM60 °FLight rain. Overcast.2 mph93%30.17 "Hg3 mi
2:00 AM61 °FLight rain. Overcast.2 mph90%30.17 "Hg4 mi
1:00 AM61 °FLight rain. Overcast.1 mph89%30.19 "Hg6 mi
12:00 AM61 °FOvercast.2 mph89%30.19 "Hg6 mi
11:00 PM
Sep 29
61 °FOvercast.1 mph89%30.18 "Hg8 mi
10:00 PM62 °FOvercast.2 mph87%30.18 "Hg8 mi
9:00 PM62 °FOvercast.1 mph85%30.18 "Hg8 mi
8:00 PM63 °FLight rain. Overcast.1 mph82%30.18 "Hg9 mi
7:00 PM65 °FOvercast.1 mph76%30.17 "Hg11 mi
6:00 PM66 °FPartly sunny.1 mph70%30.17 "Hg11 mi
5:00 PM70 °FPartly sunny.1 mph60%30.17 "Hg9 mi
4:00 PM69 °FScattered clouds.1 mph61%30.17 "Hg8 mi
3:00 PM68 °FOvercast.1 mph63%30.17 "Hg11 mi
2:00 PM68 °FPartly sunny.1 mph63%30.18 "Hg11 mi
1:00 PM67 °FScattered clouds.2 mph63%30.19 "Hg10 mi
12:00 PM63 °FSunny.2 mph75%30.19 "Hg7 mi
11:00 AM59 °FFog.1 mph82%30.19 "Hg4 mi
10:00 AM55 °FFog.1 mph92%30.20 "Hg4 mi
9:00 AM53 °FFog.1 mph97%30.19 "Hg2 mi
8:00 AM52 °FFog.1 mph98%30.19 "Hg3 mi
Weather by CustomWeather, © 2014

See weather overviewHow to use our weather pages